Regional Weather Roundup
Issued by NWS

Home | Current Version | Previous Version | Graphics & Text | Print | Product List | Glossary On
Versions: 1 2 3 4 5 6 7 8 9 10 11 12 13 14 15 16 17 18 19 20 21 22 23 24 25 26 27 28 29 30 31 32 33 34 35 36 37 38 39 40 41 42 43 44 45 46 47 48 49 50
989
ASUS43 KDMX 221806
RWRIA

WEATHER ROUNDUP FOR IOWA
NATIONAL WEATHER SERVICE DES MOINES IA
1200 PM CST WED FEB 22 2017

NOTE: "FAIR" INDICATES FEW OR NO CLOUDS BELOW 12,000 FEET WITH NO
SIGNIFICANT WEATHER AND/OR OBSTRUCTIONS TO VISIBILITY.

* - THESE STATIONS ARE NOT NWS STATIONS...THUS NOT UNDER NWS
QUALITY CONTROL.  THEY ALSO DO NOT REPORT WEATHER SUCH
AS PRECIPITATION OR FOG.

IAZ001>003-012>014-020>022-031>034-043>046-221900-
   NORTHWEST IOWA

CITY           SKY/WX    TMP DP  RH WIND       PRES   REMARKS
CARROLL *      SUNNY     63  41  45 W9G15     29.61S
CHEROKEE *     SUNNY     65  41  41 NW12      29.60S
DENISON *      SUNNY     63  39  42 NW10      29.61S
LE MARS *      SUNNY     63  43  48 NW13      29.64R
ORANGE CITY *  SUNNY     61  46  59 W15       29.63S
SHELDON *      SUNNY     59  48  67 NW14      29.60S
SIOUX CITY     SUNNY     66  41  40 NW7       29.64S
6HR MIN TEMP:  34; 6HR MAX TEMP:  66;

SPENCER        SUNNY     64  44  48 W12       29.59S
6HR MIN TEMP:  31; 6HR MAX TEMP:  64;

STORM LAKE *   SUNNY     63  43  48 NW9G15    29.60F
$$

IAZ055>058-069>071-079>083-090>094-221900-
   SOUTHWEST IOWA

CITY           SKY/WX    TMP DP  RH WIND       PRES   REMARKS
ATLANTIC *     SUNNY     63  39  42 W10G18    29.64R
CLARINDA *     SUNNY     66  37  34 W9G20       N/A
COUNCIL BLFS * SUNNY     64  36  34 W10G17    29.65R
CRESTON *      SUNNY     64  36  34 SW20G31   29.66R
HARLAN  *      SUNNY     61  41  48 W12       29.66F
LAMONI         SUNNY     71  36  27 SW17G29   29.63F
6HR MIN TEMP:  43; 6HR MAX TEMP:  71;

RED OAK *      SUNNY     63  39  42 W10       29.65F
SHENANDOAH *   SUNNY     66  37  34 W7        29.66F
$$

IAZ047>049-059>061-072>074-084-221900-
   CENTRAL IOWA

CITY           SKY/WX    TMP DP  RH WIND       PRES   REMARKS
AMES           SUNNY     65  45  48 W14       29.60S
6HR MIN TEMP:  43; 6HR MAX TEMP:  65;

ANKENY *       SUNNY     72  34  25 W21       29.61S
BOONE *        SUNNY     63  41  45 W13G21    29.60F
CHARITON *     SUNNY     68  43  40 S20       29.63F
DES MOINES     MOSUNNY   71  33  24 W25G31    29.61R
6HR MIN TEMP:  47; 6HR MAX TEMP:  73;

GRINNELL*      SUNNY     69  39  34 S15G21    29.62F
KNOXVILLE *    SUNNY     70  39  32 S15G22    29.59F
MARSHALLTOWN   SUNNY     67  39  35 SW16      29.59F
6HR MIN TEMP:  48; 6HR MAX TEMP:  67;

NEWTON *       SUNNY     70  37  30 SW15G22   29.59F
PELLA *        SUNNY     71  37  28 SW13G21   29.62F
PERRY *          N/A     62  38  40 W15G24    29.62S
$$

IAZ004>006-015-016-023>025-035-036-221900-
   NORTH CENTRAL IOWA

CITY           SKY/WX    TMP DP  RH WIND       PRES   REMARKS
ALGONA *       MOSUNNY   54  45  71 SW6       29.58F
CLARION *      SUNNY     57  45  62 W10       29.59F
ESTHERVILLE    SUNNY     58  45  62 NW9       29.57S
6HR MIN TEMP:  34; 6HR MAX TEMP:  60;

FORT DODGE *   SUNNY     61  43  51 W9        29.60F
MASON CITY     PTSUNNY   53  41  63 W6        29.59F
6HR MIN TEMP:  33; 6HR MAX TEMP:  53;

FOREST CITY *    N/A     50  41  71 W6        29.59F
WEBSTER CITY * SUNNY     61  43  51 SW9       29.57F
IOWA FALLS *     N/A     63  44  51 W9        29.60F
$$

IAZ007>011-017>019-026>030-037>042-050>054-066-221900-
   NORTHEAST IOWA

CITY           SKY/WX    TMP DP  RH WIND       PRES   REMARKS
CEDAR RAPIDS   SUNNY     70  46  42 S17G23    29.61F
6HR MIN TEMP:  45; 6HR MAX TEMP:  70;

CHARLES CITY * MOSUNNY   52  45  76 S8        29.59F
CLINTON *      SUNNY     67  52  58 SW17      29.68
DECORAH *      MOSUNNY   55  39  54 SW8       29.61R
DUBUQUE        SUNNY     65  47  52 SW18G26   29.62F
6HR MIN TEMP:  42; 6HR MAX TEMP:  65;

MONTICELLO *   SUNNY     68  48  49 S17G24    29.62F
OELWEIN *      CLOUDY    59  43  55 S10       29.61F
WATERLOO       PTSUNNY   63  38  39 SW17      29.60F
6HR MIN TEMP:  39; 6HR MAX TEMP:  65;

$$

IAZ064-065-067-068-078-221900-
   EAST CENTRAL IOWA

CITY           SKY/WX    TMP DP  RH WIND       PRES   REMARKS
DAVENPORT      SUNNY     65  51  60 S16G24    29.68F
6HR MIN TEMP:  52; 6HR MAX TEMP:  66;

IOWA CITY      SUNNY     72  44  36 S17       29.65F
6HR MIN TEMP:  39; 6HR MAX TEMP:  72;

MUSCATINE *    SUNNY     68  52  56 S18       29.67F
QUAD CITIES    SUNNY     70  54  56 SW15G25   29.67F
$$

IAZ062-063-075>077-085>089-095>099-221900-
   SOUTHEAST IOWA

CITY           SKY/WX    TMP DP  RH WIND       PRES   REMARKS
BURLINGTON     SUNNY     66  56  70 SW15      29.70F
6HR MIN TEMP:  52; 6HR MAX TEMP:  66;

FAIRFIELD *    SUNNY     72  45  37 S16G25    29.65F
KEOKUK *       SUNNY     66  55  68 SW14G21   29.71F
OTTUMWA        SUNNY     76  37  24 S22       29.62F
6HR MIN TEMP:  46; 6HR MAX TEMP:  76;

WASHINGTON *   SUNNY     72  46  40 S20       29.66F
$$

ABBREVIATIONS USED IN REMARKS
   TC - TEMPERATURES IN CELSIUS
  WCI - WIND CHILL INDEX
   HX - HEAT INDEX
  VSB - VISIBILITY
$$





USA.gov is the U.S. government's official web portal to all federal, state and local government web resources and services.